Simultaneous Nadir Overpasses (SNOs) Predictions

Prediction of SNOs near US between AQUA and NPP Satellite Orbit:

Table of predicted SNOs near US for the next 10.0 days since TLE Epoch: 7/24/2021
Index Date (AQUA) Time (AQUA) AQUA Lat,Lon Date (NPP) Time (NPP) NPP Lat,Lon Distance(km) Time Diff (sec)
1 07/25/2021 07:18:41 49.94, -75.99 07/25/2021 07:20:29 50.36, -78.24 167.46 108
2 07/25/2021 08:57:35 49.88,-100.73 07/25/2021 09:01:57 50.47,-103.56 212.27 262
3 07/27/2021 18:16:52 49.99, -80.20 07/27/2021 18:10:48 49.70, -81.84 121.77 364
4 07/27/2021 19:55:45 49.99,-104.92 07/27/2021 19:52:16 49.58,-107.16 167.02 209
5 07/27/2021 21:30:54 36.63,-124.99 07/27/2021 21:29:54 36.15,-127.64 243.16 60
6 07/30/2021 09:23:33 23.27,-113.49 07/30/2021 09:16:07 23.39,-113.99 52.55 446
7 08/02/2021 06:30:15 46.43, -65.02 08/02/2021 06:30:51 46.85, -67.07 163.16 36
8 08/02/2021 08:08:09 49.94, -88.35 08/02/2021 08:11:19 50.42, -90.92 190.52 190
9 08/02/2021 09:47:03 49.88,-113.09 08/02/2021 09:52:47 50.53,-116.24 235.28 344
